Manchester, NH

5:26 AM EDT on April 25, 2018 (GMT -0400)
Manchester

Weather History for KMHT - May, 2013

Change the Weather History Date:

Monday, May 27, 2013

  Actual Average Record
Temperature  
Mean Temperature 54 °F 61 °F  
Max Temperature 72 °F 72 °F 91 °F (2015)
Min Temperature 39 °F 51 °F 32 °F (1969)
Degree Days  
Heating Degree Days 10 5  
Month to date heating degree days 221  
Since 1 July heating degree days 6316  
Cooling Degree Days 0 1  
Month to date cooling degree days 14  
Year to date cooling degree days 18  
Growing Degree Days 4 (Base 50)    
Moisture  
Dew Point 35 °F    
Average Humidity 50    
Maximum Humidity 89    
Minimum Humidity 22    
Precipitation  
Precipitation 0.00 in 0.14 in 2.15 in (1890)
Month to date precipitation 3.43  
Year to date precipitation 17.42  
Snow  
Snow 0.00 in - - ()
Month to date snowfall  
Since 1 July snowfall  
Snow Depth -    
Sea Level Pressure  
Sea Level Pressure 30.14 in    
Wind  
Wind Speed 5 mph (WNW)    
Max Wind Speed 18 mph    
Max Gust Speed 23 mph    
Visibility 10 miles    
Events      
T = Trace of Precipitation, MM = Missing Value Source: NWS Daily Summary

Daily Weather History Graph

Daily Weather History Graph

Search for Another Location

Airport or City:

Astronomy

May. 27, 2013 Rise Set
Actual Time 5:12 AM EDT 8:14 PM EDT
Civil Twilight 4:38 AM EDT 8:48 PM EDT
Nautical Twilight 3:55 AM EDT 9:31 PM EDT
Astronomical Twilight 3:04 AM EDT 10:23 PM EDT
Moon 10:49 PM EDT (5/27) 7:47 AM EDT (5/27)
Length of Visible Light 16h 09m
Length of Day
15h 01m
Waning Gibbous, 91% of the Moon is Illuminated
May 27
Waning Gibbous
May 31
Last Quarter
Jun 8
New
Jun 16
First Quarter
Jun 23
Full

Hourly Weather History & Observations

Time (EDT) Temp. Windchill Dew Point Humidity Pressure Visibility Wind Dir Wind Speed Gust Speed Precip Events Conditions
12:53 AM 45.0 °F 43.5 °F 37.0 °F 74% 30.12 in 10.0 mi SSW 3.5 mph - N/A   Clear
1:53 AM 43.0 °F 40.3 °F 37.0 °F 80% 30.12 in 10.0 mi SSW 4.6 mph - N/A   Clear
2:53 AM 42.1 °F 39.2 °F 37.9 °F 85% 30.12 in 10.0 mi SSW 4.6 mph - N/A   Clear
3:53 AM 41.0 °F - 37.0 °F 86% 30.12 in 10.0 mi Calm Calm - N/A   Clear
4:53 AM 41.0 °F - 37.0 °F 86% 30.13 in 10.0 mi Calm Calm - N/A   Clear
5:53 AM 39.9 °F - 36.0 °F 86% 30.14 in 7.0 mi Calm Calm - N/A   Partly Cloudy
6:53 AM 42.1 °F - 39.0 °F 89% 30.15 in 10.0 mi Calm Calm - N/A   Clear
7:53 AM 48.9 °F - 39.9 °F 71% 30.15 in 10.0 mi WSW 3.5 mph - N/A   Clear
8:53 AM 57.9 °F - 37.0 °F 46% 30.15 in 10.0 mi West 8.1 mph - N/A   Clear
9:53 AM 62.1 °F - 35.1 °F 37% 30.14 in 10.0 mi NW 10.4 mph - N/A   Clear
10:53 AM 64.0 °F - 30.9 °F 29% 30.14 in 10.0 mi NW 12.7 mph 20.7 mph N/A   Partly Cloudy
11:53 AM 66.0 °F - 30.0 °F 26% 30.14 in 10.0 mi NNW 13.8 mph 23.0 mph N/A   Partly Cloudy
12:53 PM 66.9 °F - 30.0 °F 25% 30.12 in 10.0 mi NNW 18.4 mph - N/A   Partly Cloudy
1:53 PM 69.1 °F - 30.0 °F 23% 30.11 in 10.0 mi NNW 10.4 mph 19.6 mph N/A   Partly Cloudy
2:53 PM 70.0 °F - 28.9 °F 22% 30.11 in 10.0 mi NW 13.8 mph 20.7 mph N/A   Clear
3:53 PM 70.0 °F - 28.9 °F 22% 30.10 in 10.0 mi NW 6.9 mph 18.4 mph N/A   Partly Cloudy
4:53 PM 70.0 °F - 30.0 °F 23% 30.11 in 10.0 mi WNW 10.4 mph 20.7 mph N/A   Partly Cloudy
5:53 PM 70.0 °F - 30.0 °F 23% 30.11 in 10.0 mi NW 10.4 mph - N/A   Partly Cloudy
6:53 PM 70.0 °F - 30.0 °F 23% 30.12 in 10.0 mi NW 10.4 mph - N/A   Clear
7:53 PM 68.0 °F - 32.0 °F 26% 30.13 in 10.0 mi NNW 6.9 mph - N/A   Clear
8:53 PM 63.0 °F - 37.0 °F 38% 30.15 in 10.0 mi Calm Calm - N/A   Clear
9:53 PM 57.9 °F - 39.9 °F 51% 30.17 in 10.0 mi Calm Calm - N/A   Clear
10:53 PM 54.0 °F - 42.1 °F 64% 30.19 in 10.0 mi Calm Calm - N/A   Clear
11:53 PM 53.1 °F - 42.1 °F 66% 30.21 in 10.0 mi Calm Calm - N/A   Clear